Regional Weather Roundup
Issued by NWS

Home | Current Version | Previous Version | Graphics & Text | Print | Product List | Glossary On
Versions: 1 2 3 4 5 6 7 8 9 10 11 12 13 14 15 16 17 18 19 20 21 22 23 24 25 26 27 28 29 30 31 32 33 34 35 36 37 38 39 40 41 42 43 44 45 46 47 48 49 50
000
ASUS43 KMPX 210810
RWRMN
WEATHER ROUNDUP FOR MINNESOTA
NATIONAL WEATHER SERVICE TWIN CITIES/CHANHASSEN MN
200 AM CST SAT JAN 21 2017


NOTE: "FAIR" INDICATES FEW OR NO CLOUDS BELOW 12,000 FEET WITH NO
SIGNIFICANT WEATHER AND/OR OBSTRUCTIONS TO VISIBILITY. N/A MEANS
CURRENT SKY AND/OR WEATHER CONDITIONS ARE NOT AVAILABLE.

MNZ060>063-068>070-210900-
   Twin Cities Metro

CITY           SKY/WX    TMP DP  RH WIND       PRES   REMARKS
TWIN CITIES    CLOUDY    35  34  96 SE8       29.50F FOG     WCI  29
ST PAUL        CLOUDY    35  35 100 SE7       29.52F FOG     WCI  29
CRYSTAL        CLOUDY    36  33  89 E7        29.49F FOG
BLAINE         FOG       37  37 100 E6        29.50F VSB 3/4
LAKEVILLE      FOG       32  32 100 E3        29.49F VSB 1/2
EDEN PRAIRIE   CLOUDY    35  34  96 E7        29.48F FOG     WCI  29
SOUTH ST PAUL  CLOUDY    36  35  99 CALM      29.50F FOG
LAKE ELMO      FOG       36  36 100 E5        29.52F VSB 1/2
$$
MNZ001>005-007-008-013>017-022>024-027-028-210900-
   Northwest Minnesota

CITY           SKY/WX    TMP DP  RH WIND       PRES   REMARKS
BEMIDJI        CLOUDY    33  33 100 SE8       29.47F FOG     WCI  26
HALLOCK        CLOUDY    36  34  93 SE9       29.43F
ROSEAU         CLOUDY    36  30  80 SE6       29.47S
WARROAD        CLOUDY    36  30  80 SE8       29.48S
THIEF RVR FALL CLOUDY    34  33  96 SE15      29.45S WCI  24
CROOKSTON      CLOUDY    36  34  93 SE9       29.43F
FOSSTON        CLOUDY    34  32  93 SE10G17   29.45S WCI  26
DETROIT LAKES  CLOUDY    34  34 100 SE14      29.44S FOG     WCI  24
MOORHEAD       CLOUDY    34  32  93 S7        29.43S WCI  28
PARK RAPIDS    CLOUDY    34  32  92 SE7       29.46F FOG     WCI  28
MAHNOMEN       CLOUDY    34  33  94 SE12      29.43F WCI  26
$$
MNZ006-009>011-018-025>026-210900-
   North Central Minnesota

CITY           SKY/WX    TMP DP  RH WIND       PRES   REMARKS
BAUDETTE       CLOUDY    34  33  96 SE7       29.49S FOG     WCI  28
FLAG ISLAND    CLOUDY    34  32  93 SE7       29.49S WCI  28
INTL FALLS     LGT SNOW  33  32  96 SE6       29.53S FOG     WCI  28
WASKISH        CLOUDY    36  34  93 SE7       29.49F
BIG FORK       CLOUDY    36  34  93 SE3       29.51F FOG
LONGVILLE      CLOUDY    34  34 100 CALM      29.48F FOG
GRAND RAPIDS   FOG       34  33  96 SE5       29.52F VSB 1/2 WCI  30
CRANE LAKE     LGT RAIN  30  30 100 CALM      29.57S
ORR            CLOUDY    32  30  93 CALM      29.51S
COOK           CLOUDY    34  32  93 CALM      29.54S
WALKER         CLOUDY    33  32  99 E3        29.48F
$$
MNZ012-019>021-037-210900-
   Northeast Minnesota

CITY           SKY/WX    TMP DP  RH WIND       PRES   REMARKS
DULUTH         DRZL/FOG  34  34 100 SE8       29.53F VSB 1/8 WCI  27
ELY            CLOUDY    32  32 100 CALM      29.55S
HIBBING        CLOUDY    32  32 100 SE6       29.52F FOG     WCI  26
EVELETH        CLOUDY    32  32  99 CALM      29.54F
DULUTH HARBOR  CLOUDY    34  34 100 E5        29.57S FOG     WCI  30
TWO HARBORS    HAZE      37  32  81 CALM      29.55R VSB 1/4
SILVER BAY     FOG       36  36 100 CALM      29.55S VSB<1/4
GRAND MARAIS     N/A     35  34  96 NE7       29.62S WCI  29
G MARAIS ARPRT MIX PCPN  30  28  93 E7        29.58S VSB 3/4 WCI  23
$$
MNZ029>031-032-039>041-046>048-054>057-064-210900-
   West Central Minnesota

CITY           SKY/WX    TMP DP  RH WIND       PRES   REMARKS
FERGUS FALLS   CLOUDY    36  36 100 SE13      29.47S
WHEATON        CLOUDY    39  39 100 SE10      29.44S FOG
MORRIS         CLOUDY    34  34 100 SE13      29.42F FOG     WCI  25
ALEXANDRIA     CLOUDY    33  33 100 E12       29.44F FOG     WCI  24
ELBOW LAKE     CLOUDY    33  33 100 SE9       29.44S FOG     WCI  26
WADENA         CLOUDY    32  32 100 E5        29.45F FOG     WCI  27
GLENWOOD       FOG       34  34 100 E12       29.45S VSB 1/2 WCI  25
APPLETON       CLOUDY    36  34  93 SE12      29.42S FOG
BENSON         CLOUDY    37  34  87 S8        29.45F
ORTONVILLE     CLOUDY    34  32  93 CALM      29.40F FOG
MADISON        CLOUDY    36  36 100 SE12      29.40F FOG
WILLMAR        FOG       34  34 100 SE9       29.46F VSB 1   WCI  26
$$
MNZ033>034-036-042>043-049>051-058-059-210900-
   Central Minnesota

CITY           SKY/WX    TMP DP  RH WIND       PRES   REMARKS
ST CLOUD       FOG       34  34 100 E5        29.48F VSB 1/2 WCI  30
SAUK CENTRE    FOG       33  33 100 E6        29.46F VSB 3/4 WCI  27
PAYNESVILLE    FOG       33  33 100 SE6       29.47S VSB 1/2 WCI  28
AITKIN         FOG       36  32  87 E3        29.49F VSB 1/2
PINE RIVER     CLOUDY    34  34 100 E6        29.52F FOG     WCI  29
BRAINERD       FOG       33  33 100 SE7       29.49F VSB 3/4 WCI  27
STAPLES        CLOUDY    34  34 100 SE3       29.47S FOG
LONG PRAIRIE   SNOW      32  32 100 E3        29.46F VSB 1/2
LITTLE FALLS   FOG       32  32 100 E6        29.49S VSB 1   WCI  26
LITCHFIELD     FOG       36  36 100 SE8       29.47F VSB 1/2
BUFFALO        CLOUDY    34  33  96 E6        29.49F FOG     WCI  29
MAPLE LAKE     FOG       35  35 100 MISG      29.50S VSB 1/2
HUTCHINSON     DRZL/FOG  35  35 100 E9        29.48F VSB 1   WCI  27
$$
MNZ037-044-045-052-053-210900-
   East Central Minnesota

CITY           SKY/WX    TMP DP  RH WIND       PRES   REMARKS
PRINCETON      FOG       36  34  93 E5        29.50F VSB 1/2
MORA           FOG       32  32 100 E5        29.53S VSB 1/2 WCI  27
CAMBRIDGE      FOG       36  36 100 CALM      29.49F VSB 1
RUSH CITY      CLOUDY    34  34 100 E3        29.52F FOG
MOOSE LAKE     FOG       34  32  93 E3        29.51F VSB 1
HINCKLEY       FOG       34  34 100 E5        29.52F VSB 1/2 WCI  30
CLOQUET        FOG       34  34 100 E3        29.52F VSB 1/4
MCGREGOR       CLOUDY    34  34 100 E3        29.51S VSB 1/2
$$
MNZ071>073-080-081-089-090-097-098-210900-
   Southwest Minnesota

CITY           SKY/WX    TMP DP  RH WIND       PRES   REMARKS
MONTEVIDEO     CLOUDY    34  34 100 S9        29.44F FOG     WCI  26
GRANITE FALLS  CLOUDY    35  35  99 E6        29.44F FOG     WCI  30
CANBY          CLOUDY    35  35  99 CALM      29.40F FOG
MARSHALL       CLOUDY    34  34 100 SE7       29.41F WCI  28
REDWOOD FALLS  FOG       34  33  96 E8        29.43F VSB 1   WCI  27
OLIVIA         FOG       34  34 100 E8        29.44F VSB 1/2 WCI  27
PIPESTONE      LGT SNOW  36  36 100 SE8       29.36F
WINDOM         FOG       36  36 100 E6        29.41F VSB 1/2
WORTHINGTON    CLOUDY    34  34 100 E7        29.39F FOG     WCI  28
JACKSON        FOG       32  32 100 E7        29.41F VSB 1/2 WCI  26
TRACY          CLOUDY    36  35  99 SE5       29.40F
SLAYTON        FOG       33  33 100 E7        29.40F VSB 1/2 WCI  27
$$
MNZ065>067-074>077-082>085-091>093-210900-
   South Central Minnesota

CITY           SKY/WX    TMP DP  RH WIND       PRES   REMARKS
MANKATO        FOG       34  34 100 E8        29.45F VSB 1/2 WCI  27
NEW ULM        FOG       34  34 100 E5        29.44F VSB 1/2 WCI  30
ST JAMES       FOG       34  34 100 E6        29.44F VSB 3/4 WCI  29
FAIRMONT       FOG       34  34 100 E7        29.43F VSB 3/4 WCI  28
GLENCOE        FOG       35  35 100 E6        29.47F VSB 1/2 WCI  30
OWATONNA       CLOUDY    36  34  93 E9        29.46F FOG
WASECA         CLOUDY    34  34 100 E9        29.46F FOG     WCI  26
ALBERT LEA     SNOW      36  36 100 E6        29.45S VSB 1/4
$$
MNZ078>079-086>088-094>096-210900-
   Southeast Minnesota

CITY           SKY/WX    TMP DP  RH WIND       PRES   REMARKS
ROCHESTER      FOG       33  33 100 E9        29.47F VSB 1/4 WCI  25
RED WING       CLOUDY    36  36 100 E6        29.50F FOG
STANTON        FOG       35  34  94 E6        29.48F VSB 1   WCI  30
DODGE CENTER   FOG       34  34 100 CALM      29.47F VSB 1/4
WINONA         CLOUDY    34  34 100 CALM      29.53F FOG
AUSTIN         FOG       34  34 100 E9        29.45F VSB 1/4 WCI  26
PRESTON        FOG       33  32  97 E7        29.48F VSB 1/4 WCI  27
$$
ABBREVIATIONS USED IN REMARKS
   TC - TEMPERATURES IN CELSIUS
  WCI - WIND CHILL INDEX
   HX - HEAT INDEX
  VSB - VISIBILITY
$$




USA.gov is the U.S. government's official web portal to all federal, state and local government web resources and services.